Weather History for Leadville, CO

Change the Weather History Date:

Monday, November 4, 2013

  Actual Average Record
Temperature  
Mean Temperature 21 °F -  
Max Temperature 35 °F 42 °F 60 °F (1983)
Min Temperature 6 °F 17 °F -7 °F (1992)
Degree Days  
Heating Degree Days 44 36  
Month to date heating degree days 158 140  
Since 1 July heating degree days 2193 2329  
Cooling Degree Days 0 0  
Month to date cooling degree days 0 0  
Year to date cooling degree days 0 0  
Moisture  
Dew Point 13 °F    
Average Humidity 64    
Maximum Humidity 92    
Minimum Humidity 35    
Precipitation  
Precipitation T in 0.03 in 0.13 in (2008)
Month to date precipitation 0.26 0.12  
Year to date precipitation 16.13 11.06  
Sea Level Pressure  
Sea Level Pressure 29.82 in    
Wind  
Wind Speed 8 mph (South)    
Max Wind Speed 23 mph    
Max Gust Speed 28 mph    
Visibility 8 miles    
Events Snow    
T = Trace of Precipitation, MM = Missing Value Source: NWS Daily Summary

Daily Weather History Graph

Daily Weather History Graph

Search for Another Location

Airport:

Trip Planner

Search our weather history database for the weather conditions in past years. The results will help you decide how hot, cold, wet, or windy it might be!

Date:

Astronomy

Nov. 04, 2013 Rise Set
Actual Time 6:36 AM MST 5:00 PM MST
Civil Twilight 6:08 AM MST 5:28 PM MST
Nautical Twilight 5:36 AM MST 6:00 PM MST
Astronomical Twilight 5:05 AM MST 6:31 PM MST
Moon 7:49 AM MST (11/4) 6:08 PM MST (11/4)
Length of Visible Light 11h 19m
Length of Day
10h 23m
New Moon, 2% of the Moon is Illuminated
Nov 4
New Moon
Nov 9
First Quarter
Nov 17
Full
Nov 25
Last Quarter
Dec 2
New

Hourly Weather History & Observations

Time (MST) Temp. Windchill Dew Point Humidity Pressure Visibility Wind Dir Wind Speed Gust Speed Precip Events Conditions
12:53 AM 17.1 °F 5.0 °F 12.0 °F 81% 29.72 in 10.0 mi North 10.4 mph - 0.00 in   Clear
1:53 AM 14.0 °F 2.0 °F 10.0 °F 84% 29.74 in 10.0 mi NE 9.2 mph - N/A   Clear
2:53 AM 10.9 °F 0.2 °F 7.0 °F 84% 29.77 in 10.0 mi ENE 6.9 mph - N/A   Clear
3:53 AM 10.0 °F 0.4 °F 6.1 °F 84% 29.80 in 10.0 mi NE 5.8 mph - N/A   Clear
4:53 AM 10.0 °F -0.9 °F 6.1 °F 84% 29.83 in 10.0 mi NE 6.9 mph - N/A   Clear
5:53 AM 9.0 °F 2.4 °F 3.0 °F 77% 29.85 in 10.0 mi SSE 3.5 mph - N/A   Clear
6:53 AM 10.9 °F 1.4 °F 5.0 °F 77% 29.85 in 10.0 mi ENE 5.8 mph - N/A   Clear
7:53 AM 14.0 °F - 8.1 °F 77% 29.89 in 10.0 mi Calm Calm - N/A   Clear
8:53 AM 24.1 °F 19.7 °F 12.0 °F 60% 29.85 in 10.0 mi NW 3.5 mph - N/A   Clear
9:53 AM 28.0 °F 21.7 °F 10.9 °F 49% 29.82 in 10.0 mi South 5.8 mph - N/A   Clear
10:53 AM 32.0 °F 21.6 °F 12.9 °F 45% 29.80 in 10.0 mi SSW 15.0 mph 23.0 mph N/A   Clear
11:53 AM 33.1 °F 23.0 °F 10.9 °F 40% 29.80 in 10.0 mi SW 15.0 mph 23.0 mph N/A   Clear
12:53 PM 34.0 °F 26.0 °F 9.0 °F 35% 29.76 in 10.0 mi South 10.4 mph 18.4 mph N/A   Partly Cloudy
1:53 PM 34.0 °F 23.0 °F 9.0 °F 35% 29.77 in 10.0 mi South 18.4 mph 28.8 mph N/A   Partly Cloudy
2:53 PM 33.1 °F 25.5 °F 9.0 °F 37% 29.81 in 10.0 mi SSW 9.2 mph 19.6 mph N/A   Partly Cloudy
3:53 PM 32.0 °F 24.2 °F 12.0 °F 44% 29.82 in 10.0 mi SSE 9.2 mph - N/A   Partly Cloudy
4:53 PM 32.0 °F 22.5 °F 10.9 °F 42% 29.82 in 10.0 mi South 12.7 mph - N/A   Scattered Clouds
5:53 PM 28.0 °F 18.6 °F 16.0 °F 61% 29.86 in 10.0 mi South 10.4 mph - N/A   Partly Cloudy
6:53 PM 23.0 °F 10.6 °F 19.0 °F 85% 29.90 in 10.0 mi South 13.8 mph - N/A   Scattered Clouds
7:53 PM 21.9 °F 14.5 °F 19.0 °F 89% 29.88 in 10.0 mi SSE 5.8 mph - N/A   Mostly Cloudy
8:53 PM 21.0 °F 14.6 °F 18.0 °F 88% 29.80 in 10.0 mi ENE 4.6 mph - N/A   Mostly Cloudy
9:53 PM 21.9 °F 15.7 °F 18.0 °F 85% 29.76 in 10.0 mi Variable 4.6 mph - N/A   Overcast
10:48 PM 21.2 °F 12.6 °F 19.4 °F 93% 29.88 in 2.5 mi South 6.9 mph - 0.00 in Snow Light Snow
10:53 PM 21.9 °F 17.2 °F 19.9 °F 92% 29.73 in 2.5 mi SW 3.5 mph - 0.00 in Snow Light Snow
11:02 PM 21.0 °F 14.6 °F 19.9 °F 96% 29.88 in 1.8 mi West 4.6 mph - 0.00 in Snow Light Snow
11:23 PM 21.0 °F 10.6 °F 19.9 °F 96% 29.88 in 1.0 mi South 9.2 mph - 0.01 in Snow Light Snow
11:34 PM 21.0 °F 16.2 °F 19.0 °F 92% 29.87 in 2.0 mi SSE 3.5 mph - 0.01 in Snow Light Snow
11:53 PM 21.9 °F 15.7 °F 19.9 °F 92% 29.71 in 4.0 mi West 4.6 mph - 0.01 in Snow Light Snow
11:58 PM 21.0 °F 14.6 °F 19.0 °F 92% 29.88 in 2.5 mi WSW 4.6 mph - 0.00 in Snow Light Snow